This is the latest recevied weather packets stored in our database for station/object N0HOT. If no packets are shown the sender has not sent any weather packets the latest 10 day(s).
| Time | Temp. | Humidity | Pressure | Rain* | Wind** | Luminosity | Snow |
|---|---|---|---|---|---|---|---|
| 1777252252 | 18.33° C | 49% | 1011.5 hPa | 0 mm | - | 0 W/m² | - |
| 1777251950 | 18.89° C | 48% | 1011.5 hPa | 0 mm | - | 0 W/m² | - |
| 1777251647 | 18.89° C | 48% | 1011.5 hPa | 0 mm | - | 0 W/m² | - |
| 1777251343 | 18.89° C | 47% | 1011.5 hPa | 0 mm | - | 1 W/m² | - |
| 1777251039 | 18.89° C | 47% | 1011.5 hPa | 0 mm | - | 3 W/m² | - |
| 1777250736 | 19.44° C | 48% | 1011.5 hPa | 0 mm | - | 6 W/m² | - |
| 1777250433 | 19.44° C | 48% | 1011.1 hPa | 0 mm | - | 9 W/m² | - |
| 1777250133 | 19.44° C | 46% | 1011.5 hPa | 0 mm | - | 12 W/m² | - |
| 1777249830 | 19.44° C | 48% | 1011.1 hPa | 0 mm | - | 15 W/m² | - |
| 1777249526 | 19.44° C | 49% | 1011.1 hPa | 0 mm | - | 18 W/m² | - |
| 1777249223 | 20° C | 47% | 1011.5 hPa | 0 mm | - | 19 W/m² | - |
| 1777248920 | 20° C | 47% | 1011.1 hPa | 0 mm | - | 19 W/m² | - |
| 1777248616 | 20° C | 49% | 1011.1 hPa | 0 mm | - | 23 W/m² | - |
| 1777248313 | 20° C | 47% | 1011.1 hPa | 0 mm | - | 28 W/m² | - |
| 1777248009 | 20° C | 47% | 1011.1 hPa | 0 mm | - | 32 W/m² | - |
| 1777247708 | 20° C | 48% | 1011.1 hPa | 0 mm | - | 36 W/m² | - |
| 1777247406 | 20° C | 47% | 1011.1 hPa | 0 mm | - | 40 W/m² | - |
| 1777247103 | 20.56° C | 48% | 1011.1 hPa | 0 mm | - | 42 W/m² | - |
| 1777246800 | 20.56° C | 46% | 1011.1 hPa | 0 mm | - | 44 W/m² | - |
| 1777246495 | 20.56° C | 46% | 1011.5 hPa | 0 mm | - | 42 W/m² | - |
| 1777246193 | 20.56° C | 50% | 1011.1 hPa | 0 mm | - | 42 W/m² | - |
| 1777245890 | 21.11° C | 48% | 1011.5 hPa | 0 mm | - | 38 W/m² | - |
| 1777245589 | 21.11° C | 49% | 1011.1 hPa | 0 mm | - | 33 W/m² | - |
| 1777245284 | 21.11° C | 48% | 1011.5 hPa | 0 mm | - | 39 W/m² | - |
| 1777244980 | 21.11° C | 48% | 1011.1 hPa | 0 mm | - | 52 W/m² | - |
* Rain latest hour (hover to see other rain measurements)
** Current wind speed in m/s (hover to see current wind gust speed)